Location: *
(51.1248°S, 108.4023°W)
Time: 00:49:47
(UTC+00:00)

Cosmos 2227 Rocket - Visible Passes

Search period start: 24 October 2021 00:00
Search period end: 03 November 2021 00:00
Orbit: 837 x 846 km, 71.0° (Epoch: 23 October)

Date Brightness Start Highest point End Pass type
(mag) Time Alt. Az. Time Alt. Az. Time Alt. Az.
24 Oct 2.6 02:40:14 10° NW 02:45:55 73° WSW 02:51:39 10° SSE visible
24 Oct 4.9 04:26:46 10° W 04:31:00 21° SW 04:35:15 10° SSE visible
24 Oct 5.6 06:16:43 10° SSW 06:17:31 10° S 06:18:18 10° S visible
24 Oct 5.4 08:01:54 10° S 08:04:26 13° SSE 08:06:58 10° SE visible
24 Oct 4.1 09:45:13 10° SSW 09:50:23 33° SE 09:55:32 10° ENE visible
25 Oct 4.9 04:11:42 10° W 04:15:59 21° SW 04:20:19 10° SSE visible
25 Oct 5.6 06:01:33 10° SSW 06:02:28 10° S 06:03:24 10° S visible
25 Oct 5.4 07:46:57 10° S 07:49:24 13° SSE 07:51:50 10° SE visible
25 Oct 4.1 09:30:16 10° SSW 09:35:24 32° SE 09:40:29 10° ENE visible
26 Oct 4.9 03:56:37 10° W 04:00:59 22° SW 04:05:22 10° SSE visible
26 Oct 5.6 05:46:23 10° SSW 05:47:26 10° S 05:48:28 10° S visible
26 Oct 5.4 07:32:01 10° S 07:34:22 12° SSE 07:36:43 10° SE visible
26 Oct 4.1 09:15:19 10° SSW 09:20:24 31° SE 09:25:27 10° ENE visible
26 Oct 2.2 10:59:13 10° SW 11:04:53 64° WNW 11:10:30 10° NNE visible
27 Oct 4.9 03:41:32 10° W 03:45:58 23° SW 03:50:25 10° SSE visible
27 Oct 5.5 05:31:14 10° SSW 05:32:24 11° S 05:33:33 10° S visible
27 Oct 5.3 07:17:05 10° S 07:19:20 12° SSE 07:21:35 10° SE visible
27 Oct 4.2 09:00:22 10° SSW 09:05:24 30° SE 09:10:24 10° ENE visible
27 Oct 2.2 10:44:15 10° SW 10:49:56 66° WNW 10:55:34 10° NNE visible
28 Oct 4.9 03:26:28 10° W 03:30:58 23° SW 03:35:29 10° SSE visible
28 Oct 5.5 05:16:04 10° SSW 05:17:21 11° S 05:18:38 10° S visible
28 Oct 5.3 07:02:09 10° S 07:04:18 12° SSE 07:06:27 10° SE visible
28 Oct 4.2 08:45:25 10° SSW 08:50:24 30° SE 08:55:22 10° ENE visible
28 Oct 2.2 10:29:17 10° SSW 10:34:58 69° WNW 10:40:38 10° NNE visible
29 Oct 4.8 03:11:24 10° W 03:15:57 24° SW 03:20:32 10° SSE visible
29 Oct 5.5 05:00:55 10° SSW 05:02:19 11° SSW 05:03:42 10° S visible
29 Oct 5.3 06:47:12 10° S 06:49:16 12° SSE 06:51:20 10° SE visible
29 Oct 4.2 08:30:28 10° SSW 08:35:24 29° SE 08:40:19 10° ENE visible
29 Oct 2.2 10:14:18 10° SSW 10:20:01 72° WNW 10:25:41 10° NNE visible
30 Oct 4.8 02:56:21 10° W 03:00:57 24° SW 03:05:35 10° SSE visible
30 Oct 5.4 04:45:47 10° SSW 04:47:17 11° SSW 04:48:46 10° S visible
30 Oct 5.3 06:32:16 10° S 06:34:14 12° SSE 06:36:12 10° SE visible
30 Oct 4.2 08:15:31 10° SSW 08:20:24 28° SE 08:25:16 10° E visible
30 Oct 2.1 09:59:20 10° SSW 10:05:04 75° WNW 10:10:45 10° NNE visible
31 Oct 5.4 04:30:38 10° SSW 04:32:15 11° SSW 04:33:51 10° S visible
31 Oct 5.2 06:17:20 10° S 06:19:12 11° SSE 06:21:04 10° SE visible
31 Oct 4.2 08:00:34 10° SSW 08:05:24 27° SE 08:10:14 10° E visible
31 Oct 2.1 09:44:21 10° SSW 09:50:06 78° WNW 09:55:48 10° NNE visible
01 Nov 5.3 04:15:30 10° SSW 04:17:13 11° SSW 04:18:55 10° S visible
01 Nov 5.2 06:02:24 10° S 06:04:10 11° SSE 06:05:56 10° SSE visible
01 Nov 4.3 07:45:38 10° SSW 07:50:24 26° SE 07:55:10 10° E visible
01 Nov 2.1 09:29:23 10° SSW 09:35:09 81° WNW 09:40:51 10° NNE visible
02 Nov 5.3 04:00:21 10° SSW 04:02:11 11° SSW 04:03:59 10° S visible
02 Nov 5.2 05:47:28 10° S 05:49:08 11° SSE 05:50:48 10° SSE visible
02 Nov 4.3 07:30:41 10° SSW 07:35:24 26° SE 07:40:07 10° E visible
02 Nov 2.1 09:14:25 10° SSW 09:20:11 84° WNW 09:25:54 10° NNE visible
